星链-30968 (STARLINK-30968 )

导读 | 星芒AI

STARLINK-30968 是 SpaceX 星链(Starlink)卫星互联网项目中的一颗低轨通信卫星。它属于星链计划的第三批或后续批次发射的卫星之一,旨在为全球用户提供高速、低延迟的互联网服务。该卫星运行在约 550 公里的近地轨道,采用先进的推进和通信技术,支持全球范围内的宽带接入。星链项目通过部署大量卫星,构建覆盖全球的通信网络,尤其服务于偏远和网络基础设施薄弱的地区。

基本信息
目录编号:
58511
目录名称:
STARLINK-30968
国际标识:
2023-191D
轨道中心:
EARTH
卫星名称:
星链-30968
卫星全名:
星链-30968 (STARLINK-30968 )
卫星状态:
在轨 (已飞行694 天)
发射日期:
2023-12-07 UTC
国别 :
美国 (US)
星等 :
--
轨道信息
数据来源 国际轨道数据
星历时间: 2025-10-31T00:48:15+0800
20小时前
查看轨道信息
半长轴: 6937.208km
偏心率: 0.0001378
轨道倾角: 43.003°
近地点辐角 270.533°
升交点赤经 92.641°
平近点角 89.536°
近地点: 558.117km
远地点: 560.029km
周期: 95.838分钟
每日圈数: 15.025389
详细信息
固有亮度:
5
最大亮度:
0.3
卫星平台:
Starlink v2.0 mini
覆盖范围:
全球
运营商:
太空探索技术公司
运营商所在国:
美国
制造商(研发单位):
太空探索技术公司
制造商所在国:
美国
使用方式:
暂无
卫星简介
星链(Starlink)计划是由太空探索技术公司(SpaceX)提出的一个巨型低轨卫星互联网星座项目,计划在2019年至2024年间在太空搭建由约1.2万颗卫星组成的“星链”网络,其中1584颗将部署在地球上空550千米处的近地轨道,并从2020年开始工作。该卫星仍在工作。
2D轨道图
3D轨道图
轨道高度分析图
轨道倾角分析图
轨道综合分析图
查看轨道综合分析图